ACS3

Last updated on Sat Aug 15 2026 00:02:08 GMT+0000 (Coordinated Universal Time)

1 59588U 24077B 26226.35739433 .00017623 00000+0 11905-1 0 9995 2 59588 97.1916 132.3452 0125329 0.5310 359.5969 13.96621338116153
UTC large
Height (km)
Speed (km/s)
/
Latitude / Longitude
Inclination (degrees)
Orbital Period (minutes)
Azimuth
Elevation
Range (km)
Doppler Factor

Next 0 passes for location: London (51.5072 / 0.1276)

No passes found over London.
ACS3